Time,TemperatureF,DewpointF,PressureIn,WindDirection,WindDirectionDegrees,WindSpeedMPH,WindSpeedGustMPH,Humidity,HourlyPrecipIn,Conditions,Clouds,dailyrainin,SoftwareType,DateUTC
2013-08-13 00:00:00,69.0,69.4,29.81,North,-999,-999.0,-999.0,101,0.00,,,0.00,tws,2013-08-13 04:00:00,
2013-08-13 00:05:00,69.0,69.4,29.82,North,-999,-999.0,-999.0,101,0.00,,,0.00,tws,2013-08-13 04:05:00,
2013-08-13 00:10:00,69.0,69.5,29.81,North,-999,-999.0,-999.0,101,0.00,,,0.00,tws,2013-08-13 04:10:00,
2013-08-13 00:20:00,68.9,69.3,29.80,North,-999,-999.0,-999.0,101,0.00,,,0.00,tws,2013-08-13 04:20:00,
2013-08-13 00:25:00,68.8,69.2,29.80,North,-999,-999.0,-999.0,101,0.00,,,0.00,tws,2013-08-13 04:25:00,
2013-08-13 00:30:00,68.8,69.2,29.80,North,-999,-999.0,-999.0,101,0.00,,,0.00,tws,2013-08-13 04:30:00,
2013-08-13 00:35:00,68.7,69.2,29.80,North,-999,-999.0,-999.0,101,0.00,,,0.00,tws,2013-08-13 04:35:00,
2013-08-13 00:40:00,68.6,69.0,29.80,North,-999,-999.0,-999.0,101,0.00,,,0.00,tws,2013-08-13 04:40:00,
2013-08-13 00:45:00,68.6,69.0,29.80,North,-999,-999.0,-999.0,101,0.00,,,0.00,tws,2013-08-13 04:45:00,
2013-08-13 00:50:00,68.7,69.1,29.80,North,-999,-999.0,-999.0,101,0.00,,,0.00,tws,2013-08-13 04:50:00,
2013-08-13 00:55:00,68.7,69.1,29.80,North,-999,-999.0,-999.0,101,0.00,,,0.00,tws,2013-08-13 04:55:00,
2013-08-13 01:00:00,68.7,69.1,29.80,North,-999,-999.0,-999.0,101,0.00,,,0.00,tws,2013-08-13 05:00:00,
2013-08-13 01:05:00,68.7,69.1,29.79,North,-999,-999.0,-999.0,101,0.00,,,0.00,tws,2013-08-13 05:05:00,
2013-08-13 01:10:00,68.6,69.1,29.79,North,-999,-999.0,-999.0,101,0.00,,,0.00,tws,2013-08-13 05:10:00,
2013-08-13 01:15:00,68.6,68.9,29.79,North,-999,-999.0,-999.0,101,0.00,,,0.00,tws,2013-08-13 05:15:00,
2013-08-13 01:20:00,68.6,69.0,29.78,North,-999,-999.0,-999.0,101,0.00,,,0.00,tws,2013-08-13 05:20:00,
2013-08-13 01:25:00,68.6,69.0,29.78,North,-999,-999.0,-999.0,101,0.00,,,0.00,tws,2013-08-13 05:25:00,
2013-08-13 01:30:00,68.5,68.9,29.78,North,-999,-999.0,-999.0,101,0.00,,,0.00,tws,2013-08-13 05:30:00,
2013-08-13 01:35:00,68.5,68.9,29.79,North,-999,-999.0,-999.0,101,0.00,,,0.00,tws,2013-08-13 05:35:00,
2013-08-13 01:40:00,68.5,68.8,29.79,North,-999,-999.0,-999.0,101,0.00,,,0.00,tws,2013-08-13 05:40:00,
2013-08-13 01:45:00,68.5,68.9,29.78,North,-999,-999.0,-999.0,101,0.00,,,0.00,tws,2013-08-13 05:45:00,
2013-08-13 01:50:00,68.3,68.7,29.77,North,-999,-999.0,-999.0,101,0.00,,,0.00,tws,2013-08-13 05:50:00,
2013-08-13 01:55:00,68.1,68.5,29.77,North,-999,-999.0,-999.0,101,0.00,,,0.00,tws,2013-08-13 05:55:00,
2013-08-13 02:00:00,68.0,68.4,29.77,North,-999,-999.0,-999.0,101,0.00,,,0.00,tws,2013-08-13 06:00:00,
2013-08-13 02:05:00,67.9,68.3,29.77,North,-999,-999.0,-999.0,101,0.00,,,0.00,tws,2013-08-13 06:05:00,
2013-08-13 02:10:00,68.0,68.4,29.77,North,-999,-999.0,-999.0,101,0.00,,,0.00,tws,2013-08-13 06:10:00,
2013-08-13 02:15:00,67.9,68.3,29.77,North,-999,-999.0,-999.0,101,0.00,,,0.00,tws,2013-08-13 06:15:00,
2013-08-13 02:20:00,67.9,68.3,29.77,North,-999,-999.0,-999.0,101,0.00,,,0.00,tws,2013-08-13 06:20:00,
2013-08-13 02:25:00,67.8,68.3,29.77,North,-999,-999.0,-999.0,101,0.00,,,0.00,tws,2013-08-13 06:25:00,
2013-08-13 02:30:00,67.8,68.2,29.77,North,-999,-999.0,-999.0,101,0.00,,,0.00,tws,2013-08-13 06:30:00,
2013-08-13 02:35:00,67.9,68.2,29.77,North,-999,-999.0,-999.0,101,0.00,,,0.00,tws,2013-08-13 06:35:00,
2013-08-13 02:40:00,68.0,68.4,29.77,North,-999,-999.0,-999.0,101,0.00,,,0.00,tws,2013-08-13 06:40:00,
2013-08-13 02:45:00,68.1,68.4,29.77,North,-999,-999.0,-999.0,101,0.00,,,0.00,tws,2013-08-13 06:45:00,
2013-08-13 02:50:00,68.1,68.5,29.77,North,-999,-999.0,-999.0,101,0.00,,,0.00,tws,2013-08-13 06:50:00,
2013-08-13 02:55:00,68.1,68.5,29.77,North,-999,-999.0,-999.0,101,0.00,,,0.00,tws,2013-08-13 06:55:00,
2013-08-13 03:00:00,68.2,68.6,29.77,North,-999,-999.0,-999.0,101,0.00,,,0.00,tws,2013-08-13 07:00:00,
2013-08-13 03:05:00,68.3,68.7,29.77,North,-999,-999.0,-999.0,101,0.00,,,0.00,tws,2013-08-13 07:05:00,
2013-08-13 03:10:00,68.4,68.7,29.77,North,-999,-999.0,-999.0,101,0.00,,,0.00,tws,2013-08-13 07:10:00,
2013-08-13 03:15:00,68.5,68.8,29.76,North,-999,-999.0,-999.0,101,0.00,,,0.00,tws,2013-08-13 07:15:00,
2013-08-13 03:20:00,68.5,68.8,29.76,North,-999,-999.0,-999.0,101,0.00,,,0.00,tws,2013-08-13 07:20:00,
2013-08-13 03:25:00,68.5,68.8,29.76,North,-999,-999.0,-999.0,101,0.00,,,0.00,tws,2013-08-13 07:25:00,
2013-08-13 03:30:00,68.4,68.8,29.76,North,-999,-999.0,-999.0,101,0.00,,,0.00,tws,2013-08-13 07:30:00,
2013-08-13 03:35:00,68.3,68.7,29.75,North,-999,-999.0,-999.0,101,0.00,,,0.00,tws,2013-08-13 07:35:00,
2013-08-13 03:40:00,68.3,68.7,29.75,North,-999,-999.0,-999.0,101,0.00,,,0.00,tws,2013-08-13 07:40:00,
2013-08-13 03:45:00,68.1,68.6,29.75,North,-999,-999.0,-999.0,101,0.00,,,0.00,tws,2013-08-13 07:45:00,
2013-08-13 03:50:00,68.0,68.4,29.75,North,-999,-999.0,-999.0,101,0.00,,,0.00,tws,2013-08-13 07:50:00,
2013-08-13 03:55:00,68.0,68.4,29.76,North,-999,-999.0,-999.0,101,0.00,,,0.00,tws,2013-08-13 07:55:00,
2013-08-13 04:00:00,67.9,68.2,29.75,North,-999,-999.0,-999.0,101,0.00,,,0.00,tws,2013-08-13 08:00:00,
2013-08-13 04:05:00,67.9,68.3,29.75,North,-999,-999.0,-999.0,101,0.00,,,0.00,tws,2013-08-13 08:05:00,
2013-08-13 04:10:00,67.9,68.3,29.74,North,-999,-999.0,-999.0,101,0.00,,,0.00,tws,2013-08-13 08:10:00,
2013-08-13 04:15:00,68.0,68.4,29.75,North,-999,-999.0,-999.0,101,0.00,,,0.00,tws,2013-08-13 08:15:00,
2013-08-13 04:20:00,68.0,68.4,29.75,North,-999,-999.0,-999.0,101,0.00,,,0.00,tws,2013-08-13 08:20:00,
2013-08-13 04:25:00,68.1,68.5,29.74,North,-999,-999.0,-999.0,101,0.00,,,0.00,tws,2013-08-13 08:25:00,
2013-08-13 04:30:00,68.1,68.5,29.74,North,-999,-999.0,-999.0,101,0.00,,,0.00,tws,2013-08-13 08:30:00,
2013-08-13 04:35:00,68.2,68.5,29.74,North,-999,-999.0,-999.0,101,0.00,,,0.00,tws,2013-08-13 08:35:00,
2013-08-13 04:40:00,68.3,68.6,29.74,North,-999,-999.0,-999.0,101,0.00,,,0.00,tws,2013-08-13 08:40:00,
2013-08-13 04:45:00,68.4,68.7,29.74,North,-999,-999.0,-999.0,101,0.00,,,0.00,tws,2013-08-13 08:45:00,
2013-08-13 04:50:00,68.5,68.8,29.74,North,-999,-999.0,-999.0,101,0.00,,,0.00,tws,2013-08-13 08:50:00,
2013-08-13 04:55:00,68.5,68.9,29.74,North,-999,-999.0,-999.0,101,0.00,,,0.00,tws,2013-08-13 08:55:00,
2013-08-13 05:00:00,68.5,68.9,29.74,North,-999,-999.0,-999.0,101,0.00,,,0.00,tws,2013-08-13 09:00:00,
2013-08-13 05:05:00,68.5,68.8,29.74,North,-999,-999.0,-999.0,101,0.00,,,0.00,tws,2013-08-13 09:05:00,
2013-08-13 05:10:00,68.5,68.8,29.74,North,-999,-999.0,-999.0,101,0.00,,,0.00,tws,2013-08-13 09:10:00,
2013-08-13 05:15:00,68.4,68.8,29.74,North,-999,-999.0,-999.0,101,0.00,,,0.00,tws,2013-08-13 09:15:00,
2013-08-13 05:20:00,68.4,68.7,29.74,North,-999,-999.0,-999.0,101,0.00,,,0.00,tws,2013-08-13 09:20:00,
2013-08-13 05:25:00,68.4,68.7,29.74,North,-999,-999.0,-999.0,101,0.00,,,0.00,tws,2013-08-13 09:25:00,
2013-08-13 05:30:00,68.3,68.7,29.74,North,-999,-999.0,-999.0,101,0.00,,,0.00,tws,2013-08-13 09:30:00,
2013-08-13 05:35:00,68.3,68.8,29.73,North,-999,-999.0,-999.0,101,0.00,,,0.00,tws,2013-08-13 09:35:00,
2013-08-13 05:40:00,68.3,68.7,29.73,North,-999,-999.0,-999.0,101,0.00,,,0.00,tws,2013-08-13 09:40:00,
2013-08-13 05:45:00,68.1,68.5,29.73,North,-999,-999.0,-999.0,101,0.00,,,0.00,tws,2013-08-13 09:45:00,
2013-08-13 05:50:00,68.1,68.5,29.73,North,-999,-999.0,-999.0,101,0.00,,,0.00,tws,2013-08-13 09:50:00,
2013-08-13 05:55:00,-145.5,-99.9,29.73,North,-999,-999.0,-999.0,101,0.00,,,0.00,tws,2013-08-13 09:55:00,
2013-08-13 06:00:00,68.0,68.4,29.73,North,-999,-999.0,-999.0,101,0.00,,,0.00,tws,2013-08-13 10:00:00,
2013-08-13 06:05:00,67.9,68.3,29.73,North,-999,-999.0,-999.0,101,0.00,,,0.00,tws,2013-08-13 10:05:00,
2013-08-13 06:10:00,67.9,68.3,29.73,North,-999,-999.0,-999.0,101,0.00,,,0.00,tws,2013-08-13 10:10:00,
2013-08-13 06:15:00,67.9,68.3,29.73,North,-999,-999.0,-999.0,101,0.00,,,0.00,tws,2013-08-13 10:15:00,
2013-08-13 06:20:00,67.9,68.2,29.73,North,-999,-999.0,-999.0,101,0.00,,,0.00,tws,2013-08-13 10:20:00,
2013-08-13 06:25:00,67.9,68.2,29.73,North,-999,-999.0,-999.0,101,0.00,,,0.00,tws,2013-08-13 10:25:00,
2013-08-13 06:30:00,68.0,68.4,29.73,North,-999,-999.0,-999.0,101,0.00,,,0.00,tws,2013-08-13 10:30:00,
2013-08-13 06:35:00,68.0,68.3,29.73,North,-999,-999.0,-999.0,101,0.00,,,0.00,tws,2013-08-13 10:35:00,
2013-08-13 06:40:00,67.9,68.3,29.73,North,-999,-999.0,-999.0,101,0.00,,,0.00,tws,2013-08-13 10:40:00,
2013-08-13 06:45:00,67.9,68.3,29.73,North,-999,-999.0,-999.0,101,0.00,,,0.00,tws,2013-08-13 10:45:00,
2013-08-13 06:50:00,67.8,68.2,29.73,North,-999,-999.0,-999.0,101,0.00,,,0.00,tws,2013-08-13 10:50:00,
2013-08-13 07:00:00,67.7,68.1,29.73,North,-999,-999.0,-999.0,101,0.00,,,0.00,tws,2013-08-13 11:00:00,
2013-08-13 07:05:00,67.7,68.1,29.73,North,-999,-999.0,-999.0,101,0.00,,,0.00,tws,2013-08-13 11:05:00,
2013-08-13 07:10:00,67.7,68.0,29.73,North,-999,-999.0,-999.0,101,0.00,,,0.00,tws,2013-08-13 11:10:00,
2013-08-13 07:15:00,67.6,68.1,29.74,North,-999,-999.0,-999.0,101,0.00,,,0.00,tws,2013-08-13 11:15:00,
2013-08-13 07:20:00,67.6,68.1,29.74,North,-999,-999.0,-999.0,101,0.00,,,0.00,tws,2013-08-13 11:20:00,
2013-08-13 07:25:00,67.6,68.0,29.73,North,-999,-999.0,-999.0,101,0.00,,,0.00,tws,2013-08-13 11:25:00,
2013-08-13 07:30:00,67.5,68.0,29.73,North,-999,-999.0,-999.0,101,0.00,,,0.00,tws,2013-08-13 11:30:00,
2013-08-13 07:35:00,67.6,67.9,29.73,North,-999,-999.0,-999.0,101,0.00,,,0.00,tws,2013-08-13 11:35:00,
2013-08-13 07:40:00,67.6,68.0,29.73,North,-999,-999.0,-999.0,101,0.00,,,0.00,tws,2013-08-13 11:40:00,
2013-08-13 07:45:00,67.7,68.1,29.72,North,-999,-999.0,-999.0,101,0.00,,,0.00,tws,2013-08-13 11:45:00,
2013-08-13 07:50:00,67.8,68.2,29.72,North,-999,-999.0,-999.0,101,0.00,,,0.00,tws,2013-08-13 11:50:00,
2013-08-13 07:55:00,67.9,68.3,29.72,North,-999,-999.0,-999.0,101,0.00,,,0.00,tws,2013-08-13 11:55:00,
2013-08-13 08:00:00,68.1,68.5,29.73,North,-999,-999.0,-999.0,101,0.00,,,0.00,tws,2013-08-13 12:00:00,
2013-08-13 08:05:00,68.3,68.7,29.73,North,-999,-999.0,-999.0,101,0.00,,,0.00,tws,2013-08-13 12:05:00,
2013-08-13 08:15:00,68.9,69.3,29.74,North,-999,-999.0,-999.0,101,0.00,,,0.00,tws,2013-08-13 12:15:00,
2013-08-13 08:20:00,69.2,69.6,29.73,North,-999,-999.0,-999.0,101,0.00,,,0.00,tws,2013-08-13 12:20:00,
2013-08-13 08:25:00,69.5,69.9,29.73,North,-999,-999.0,-999.0,101,0.00,,,0.00,tws,2013-08-13 12:25:00,
2013-08-13 08:30:00,69.8,70.2,29.74,North,-999,-999.0,-999.0,101,0.00,,,0.00,tws,2013-08-13 12:30:00,
2013-08-13 08:35:00,70.1,70.5,29.74,North,-999,-999.0,-999.0,101,0.00,,,0.00,tws,2013-08-13 12:35:00,
2013-08-13 08:40:00,70.5,70.8,29.74,North,-999,-999.0,-999.0,101,0.00,,,0.00,tws,2013-08-13 12:40:00,
2013-08-13 08:45:00,70.6,70.9,29.74,North,-999,-999.0,-999.0,101,0.00,,,0.00,tws,2013-08-13 12:45:00,
2013-08-13 08:50:00,70.7,71.0,29.74,North,-999,-999.0,-999.0,101,0.00,,,0.00,tws,2013-08-13 12:50:00,
2013-08-13 08:55:00,70.8,71.0,29.74,North,-999,-999.0,-999.0,100,0.00,,,0.00,tws,2013-08-13 12:55:00,
2013-08-13 09:00:00,70.8,70.9,29.74,North,-999,-999.0,-999.0,100,0.00,,,0.00,tws,2013-08-13 13:00:00,
2013-08-13 09:10:00,70.8,70.9,29.75,North,-999,-999.0,-999.0,100,0.00,,,0.00,tws,2013-08-13 13:10:00,
2013-08-13 09:15:00,70.7,70.9,29.75,North,-999,-999.0,-999.0,100,0.00,,,0.00,tws,2013-08-13 13:15:00,
2013-08-13 09:20:00,70.7,71.0,29.75,North,-999,-999.0,-999.0,100,0.00,,,0.00,tws,2013-08-13 13:20:00,
2013-08-13 09:25:00,70.7,71.0,29.75,North,-999,-999.0,-999.0,100,0.00,,,0.00,tws,2013-08-13 13:25:00,
2013-08-13 09:30:00,70.7,71.0,29.75,North,-999,-999.0,-999.0,101,0.00,,,0.00,tws,2013-08-13 13:30:00,
2013-08-13 09:35:00,70.8,71.1,29.74,North,-999,-999.0,-999.0,101,0.00,,,0.00,tws,2013-08-13 13:35:00,
2013-08-13 09:40:00,70.9,71.1,29.74,North,-999,-999.0,-999.0,100,0.00,,,0.00,tws,2013-08-13 13:40:00,
2013-08-13 09:45:00,71.1,71.4,29.74,North,-999,-999.0,-999.0,101,0.00,,,0.00,tws,2013-08-13 13:45:00,
2013-08-13 09:50:00,71.3,71.6,29.74,North,-999,-999.0,-999.0,100,0.00,,,0.00,tws,2013-08-13 13:50:00,
2013-08-13 09:55:00,71.6,71.8,29.74,North,-999,-999.0,-999.0,100,0.00,,,0.00,tws,2013-08-13 13:55:00,
2013-08-13 10:00:00,71.6,71.8,29.74,North,-999,-999.0,-999.0,100,0.00,,,0.00,tws,2013-08-13 14:00:00,
2013-08-13 10:05:00,71.7,71.8,29.74,North,-999,-999.0,-999.0,100,0.00,,,0.00,tws,2013-08-13 14:05:00,
2013-08-13 10:10:00,71.8,71.9,29.74,North,-999,-999.0,-999.0,100,0.00,,,0.00,tws,2013-08-13 14:10:00,
2013-08-13 10:15:00,71.9,71.9,29.74,North,-999,-999.0,-999.0,99,0.00,,,0.00,tws,2013-08-13 14:15:00,
2013-08-13 10:20:00,72.0,71.9,29.74,North,-999,-999.0,-999.0,99,0.00,,,0.00,tws,2013-08-13 14:20:00,
2013-08-13 10:25:00,72.0,71.8,29.74,North,-999,-999.0,-999.0,99,0.00,,,0.00,tws,2013-08-13 14:25:00,
2013-08-13 10:30:00,72.0,71.8,29.74,North,-999,-999.0,-999.0,99,0.00,,,0.00,tws,2013-08-13 14:30:00,
2013-08-13 10:35:00,72.4,72.2,29.74,North,-999,-999.0,-999.0,99,0.00,,,0.00,tws,2013-08-13 14:35:00,
2013-08-13 10:40:00,73.0,72.7,29.74,North,-999,-999.0,-999.0,99,0.00,,,0.00,tws,2013-08-13 14:40:00,
2013-08-13 10:45:00,73.7,73.1,29.74,North,-999,-999.0,-999.0,97,0.00,,,0.00,tws,2013-08-13 14:45:00,
2013-08-13 10:50:00,74.4,73.5,29.74,North,-999,-999.0,-999.0,97,0.00,,,0.00,tws,2013-08-13 14:50:00,
2013-08-13 10:55:00,74.9,73.6,29.74,North,-999,-999.0,-999.0,95,0.00,,,0.00,tws,2013-08-13 14:55:00,
2013-08-13 11:05:00,75.1,72.8,29.74,North,-999,-999.0,-999.0,92,0.00,,,0.00,tws,2013-08-13 15:05:00,
2013-08-13 11:10:00,75.1,72.3,29.74,North,-999,-999.0,-999.0,90,0.00,,,0.00,tws,2013-08-13 15:10:00,
2013-08-13 11:15:00,75.3,72.4,29.74,North,-999,-999.0,-999.0,90,0.00,,,0.00,tws,2013-08-13 15:15:00,
2013-08-13 11:20:00,75.4,72.6,29.74,North,-999,-999.0,-999.0,90,0.00,,,0.00,tws,2013-08-13 15:20:00,
2013-08-13 11:25:00,75.6,72.5,29.74,North,-999,-999.0,-999.0,89,0.00,,,0.00,tws,2013-08-13 15:25:00,
2013-08-13 11:30:00,75.9,72.7,29.74,North,-999,-999.0,-999.0,89,0.00,,,0.00,tws,2013-08-13 15:30:00,
2013-08-13 11:35:00,76.0,72.7,29.74,North,-999,-999.0,-999.0,89,0.00,,,0.00,tws,2013-08-13 15:35:00,
2013-08-13 11:40:00,76.1,72.6,29.74,North,-999,-999.0,-999.0,88,0.00,,,0.00,tws,2013-08-13 15:40:00,
2013-08-13 11:45:00,76.2,72.4,29.74,North,-999,-999.0,-999.0,87,0.00,,,0.00,tws,2013-08-13 15:45:00,
2013-08-13 11:50:00,76.3,72.4,29.74,North,-999,-999.0,-999.0,87,0.00,,,0.00,tws,2013-08-13 15:50:00,
2013-08-13 11:55:00,76.3,72.3,29.74,North,-999,-999.0,-999.0,87,0.00,,,0.00,tws,2013-08-13 15:55:00,
2013-08-13 12:00:00,76.4,71.9,29.74,North,-999,-999.0,-999.0,85,0.00,,,0.00,tws,2013-08-13 16:00:00,
2013-08-13 12:05:00,76.4,71.7,29.74,North,-999,-999.0,-999.0,84,0.00,,,0.00,tws,2013-08-13 16:05:00,
2013-08-13 12:10:00,76.5,71.4,29.74,North,-999,-999.0,-999.0,84,0.00,,,0.00,tws,2013-08-13 16:10:00,
2013-08-13 12:15:00,76.6,72.0,29.74,North,-999,-999.0,-999.0,85,0.00,,,0.00,tws,2013-08-13 16:15:00,
2013-08-13 12:20:00,77.0,72.3,29.73,North,-999,-999.0,-999.0,85,0.00,,,0.00,tws,2013-08-13 16:20:00,
2013-08-13 12:25:00,77.2,72.4,29.73,North,-999,-999.0,-999.0,84,0.00,,,0.00,tws,2013-08-13 16:25:00,
2013-08-13 12:30:00,77.6,72.5,29.73,North,-999,-999.0,-999.0,84,0.00,,,0.00,tws,2013-08-13 16:30:00,
2013-08-13 12:40:00,77.4,71.4,29.73,North,-999,-999.0,-999.0,81,0.00,,,0.00,tws,2013-08-13 16:40:00,
2013-08-13 12:45:00,77.2,71.3,29.73,North,-999,-999.0,-999.0,81,0.00,,,0.00,tws,2013-08-13 16:45:00,
2013-08-13 12:50:00,76.9,71.0,29.73,North,-999,-999.0,-999.0,81,0.00,,,0.00,tws,2013-08-13 16:50:00,
2013-08-13 12:55:00,76.8,71.0,29.73,North,-999,-999.0,-999.0,82,0.00,,,0.00,tws,2013-08-13 16:55:00,
2013-08-13 13:00:00,76.9,71.4,29.73,North,-999,-999.0,-999.0,82,0.00,,,0.00,tws,2013-08-13 17:00:00,
2013-08-13 13:05:00,77.1,71.5,29.72,North,-999,-999.0,-999.0,82,0.00,,,0.00,tws,2013-08-13 17:05:00,
2013-08-13 13:15:00,77.4,71.8,29.72,North,-999,-999.0,-999.0,82,0.00,,,0.00,tws,2013-08-13 17:15:00,
2013-08-13 13:20:00,77.5,71.6,29.71,North,-999,-999.0,-999.0,81,0.00,,,0.00,tws,2013-08-13 17:20:00,
2013-08-13 13:25:00,77.6,71.4,29.71,North,-999,-999.0,-999.0,80,0.00,,,0.00,tws,2013-08-13 17:25:00,
2013-08-13 13:30:00,77.8,71.5,29.71,North,-999,-999.0,-999.0,80,0.00,,,0.00,tws,2013-08-13 17:30:00,
2013-08-13 13:35:00,77.9,71.7,29.71,North,-999,-999.0,-999.0,81,0.00,,,0.00,tws,2013-08-13 17:35:00,
2013-08-13 13:40:00,77.8,71.8,29.71,North,-999,-999.0,-999.0,81,0.00,,,0.00,tws,2013-08-13 17:40:00,
2013-08-13 13:45:00,77.7,71.7,29.71,North,-999,-999.0,-999.0,81,0.00,,,0.00,tws,2013-08-13 17:45:00,
2013-08-13 13:50:00,77.4,71.6,29.71,North,-999,-999.0,-999.0,81,0.00,,,0.00,tws,2013-08-13 17:50:00,
2013-08-13 13:55:00,76.8,71.3,29.71,North,-999,-999.0,-999.0,82,0.00,,,0.00,tws,2013-08-13 17:55:00,
2013-08-13 14:00:00,76.2,70.7,29.72,North,-999,-999.0,-999.0,82,0.00,,,0.00,tws,2013-08-13 18:00:00,
2013-08-13 14:05:00,74.6,70.1,29.72,North,-999,-999.0,-999.0,85,0.48,,,0.04,tws,2013-08-13 18:05:00,
2013-08-13 14:10:00,72.5,70.4,29.72,North,-999,-999.0,-999.0,92,0.96,,,0.12,tws,2013-08-13 18:10:00,
2013-08-13 14:15:00,71.3,70.2,29.72,North,-999,-999.0,-999.0,96,0.00,,,0.12,tws,2013-08-13 18:15:00,
2013-08-13 14:20:00,71.2,70.8,29.71,North,-999,-999.0,-999.0,98,0.00,,,0.12,tws,2013-08-13 18:20:00,
2013-08-13 14:25:00,71.3,71.3,29.71,North,-999,-999.0,-999.0,100,0.00,,,0.12,tws,2013-08-13 18:25:00,
2013-08-13 14:30:00,71.3,71.4,29.71,North,-999,-999.0,-999.0,100,0.00,,,0.12,tws,2013-08-13 18:30:00,
2013-08-13 14:35:00,71.4,71.7,29.71,North,-999,-999.0,-999.0,100,0.00,,,0.12,tws,2013-08-13 18:35:00,
2013-08-13 14:40:00,72.0,72.2,29.70,North,-999,-999.0,-999.0,101,0.00,,,0.12,tws,2013-08-13 18:40:00,
2013-08-13 14:45:00,72.5,72.8,29.70,North,-999,-999.0,-999.0,101,0.00,,,0.12,tws,2013-08-13 18:45:00,
2013-08-13 14:50:00,72.9,73.1,29.70,North,-999,-999.0,-999.0,100,0.00,,,0.12,tws,2013-08-13 18:50:00,
2013-08-13 14:55:00,73.5,73.8,29.70,North,-999,-999.0,-999.0,101,0.00,,,0.12,tws,2013-08-13 18:55:00,
2013-08-13 15:00:00,74.1,74.3,29.69,North,-999,-999.0,-999.0,100,0.00,,,0.12,tws,2013-08-13 19:00:00,
2013-08-13 15:05:00,74.6,74.9,29.69,North,-999,-999.0,-999.0,101,0.00,,,0.12,tws,2013-08-13 19:05:00,
2013-08-13 15:10:00,74.7,75.0,29.69,North,-999,-999.0,-999.0,100,0.00,,,0.12,tws,2013-08-13 19:10:00,
2013-08-13 15:15:00,75.0,75.1,29.68,North,-999,-999.0,-999.0,100,0.00,,,0.12,tws,2013-08-13 19:15:00,
2013-08-13 15:25:00,75.1,74.7,29.68,North,-999,-999.0,-999.0,98,0.00,,,0.12,tws,2013-08-13 19:25:00,
2013-08-13 15:30:00,75.4,74.0,29.67,North,-999,-999.0,-999.0,95,0.00,,,0.12,tws,2013-08-13 19:30:00,
2013-08-13 15:35:00,75.7,74.3,29.67,North,-999,-999.0,-999.0,95,0.00,,,0.12,tws,2013-08-13 19:35:00,
2013-08-13 15:40:00,76.0,74.0,29.67,North,-999,-999.0,-999.0,93,0.00,,,0.12,tws,2013-08-13 19:40:00,
2013-08-13 15:45:00,76.4,72.1,29.67,North,-999,-999.0,-999.0,86,0.00,,,0.12,tws,2013-08-13 19:45:00,
2013-08-13 15:50:00,77.0,72.0,29.67,North,-999,-999.0,-999.0,84,0.00,,,0.12,tws,2013-08-13 19:50:00,
2013-08-13 15:55:00,77.7,70.4,29.67,North,-999,-999.0,-999.0,78,0.00,,,0.12,tws,2013-08-13 19:55:00,
2013-08-13 16:00:00,78.1,70.4,29.67,North,-999,-999.0,-999.0,76,0.00,,,0.12,tws,2013-08-13 20:00:00,
2013-08-13 16:05:00,78.5,70.4,29.67,North,-999,-999.0,-999.0,76,0.00,,,0.12,tws,2013-08-13 20:05:00,
2013-08-13 16:10:00,78.5,69.4,29.67,North,-999,-999.0,-999.0,73,0.00,,,0.12,tws,2013-08-13 20:10:00,
2013-08-13 16:15:00,78.4,69.3,29.66,North,-999,-999.0,-999.0,73,0.00,,,0.12,tws,2013-08-13 20:15:00,
2013-08-13 16:20:00,78.4,69.2,29.66,North,-999,-999.0,-999.0,73,0.00,,,0.12,tws,2013-08-13 20:20:00,
2013-08-13 16:25:00,78.4,69.3,29.66,North,-999,-999.0,-999.0,73,0.00,,,0.12,tws,2013-08-13 20:25:00,
2013-08-13 16:30:00,78.4,69.1,29.66,North,-999,-999.0,-999.0,72,0.00,,,0.12,tws,2013-08-13 20:30:00,
2013-08-13 16:35:00,78.2,68.9,29.67,North,-999,-999.0,-999.0,72,0.00,,,0.12,tws,2013-08-13 20:35:00,
2013-08-13 16:40:00,78.2,68.7,29.67,North,-999,-999.0,-999.0,72,0.00,,,0.12,tws,2013-08-13 20:40:00,
2013-08-13 16:50:00,78.1,68.5,29.67,North,-999,-999.0,-999.0,72,0.00,,,0.12,tws,2013-08-13 20:50:00,
2013-08-13 16:55:00,77.8,68.1,29.67,North,-999,-999.0,-999.0,71,0.00,,,0.12,tws,2013-08-13 20:55:00,
2013-08-13 17:00:00,77.9,67.9,29.66,North,-999,-999.0,-999.0,71,0.00,,,0.12,tws,2013-08-13 21:00:00,
2013-08-13 17:05:00,77.9,68.1,29.66,North,-999,-999.0,-999.0,71,0.00,,,0.12,tws,2013-08-13 21:05:00,
2013-08-13 17:10:00,77.9,68.4,29.66,North,-999,-999.0,-999.0,72,0.00,,,0.12,tws,2013-08-13 21:10:00,
2013-08-13 17:15:00,77.6,68.7,29.66,North,-999,-999.0,-999.0,73,0.00,,,0.12,tws,2013-08-13 21:15:00,
2013-08-13 17:20:00,77.7,68.2,29.66,North,-999,-999.0,-999.0,71,0.00,,,0.12,tws,2013-08-13 21:20:00,
2013-08-13 17:25:00,77.7,68.0,29.66,North,-999,-999.0,-999.0,71,0.00,,,0.12,tws,2013-08-13 21:25:00,
2013-08-13 17:30:00,77.3,67.6,29.66,North,-999,-999.0,-999.0,71,0.00,,,0.12,tws,2013-08-13 21:30:00,
2013-08-13 17:35:00,76.9,67.3,29.66,North,-999,-999.0,-999.0,71,0.00,,,0.12,tws,2013-08-13 21:35:00,
2013-08-13 17:40:00,76.7,68.1,29.66,North,-999,-999.0,-999.0,74,0.00,,,0.12,tws,2013-08-13 21:40:00,
2013-08-13 17:45:00,76.5,67.7,29.67,North,-999,-999.0,-999.0,73,0.00,,,0.12,tws,2013-08-13 21:45:00,
2013-08-13 17:50:00,76.5,67.8,29.67,North,-999,-999.0,-999.0,74,0.00,,,0.12,tws,2013-08-13 21:50:00,
2013-08-13 17:55:00,76.9,68.0,29.67,North,-999,-999.0,-999.0,73,0.00,,,0.12,tws,2013-08-13 21:55:00,
2013-08-13 18:00:00,76.8,67.3,29.68,North,-999,-999.0,-999.0,71,0.00,,,0.12,tws,2013-08-13 22:00:00,
2013-08-13 18:05:00,76.2,67.4,29.68,North,-999,-999.0,-999.0,73,0.00,,,0.12,tws,2013-08-13 22:05:00,
2013-08-13 18:10:00,75.8,67.7,29.68,North,-999,-999.0,-999.0,75,0.00,,,0.12,tws,2013-08-13 22:10:00,
2013-08-13 18:15:00,75.4,67.3,29.68,North,-999,-999.0,-999.0,75,0.00,,,0.12,tws,2013-08-13 22:15:00,
2013-08-13 18:20:00,74.9,67.3,29.67,North,-999,-999.0,-999.0,76,0.00,,,0.12,tws,2013-08-13 22:20:00,
2013-08-13 18:25:00,74.6,67.3,29.67,North,-999,-999.0,-999.0,77,0.00,,,0.12,tws,2013-08-13 22:25:00,
2013-08-13 18:35:00,74.1,66.5,29.68,North,-999,-999.0,-999.0,76,0.00,,,0.12,tws,2013-08-13 22:35:00,
2013-08-13 18:40:00,74.2,66.4,29.68,North,-999,-999.0,-999.0,76,0.00,,,0.12,tws,2013-08-13 22:40:00,
2013-08-13 18:45:00,74.2,66.0,29.68,North,-999,-999.0,-999.0,75,0.00,,,0.12,tws,2013-08-13 22:45:00,
2013-08-13 18:50:00,74.1,66.2,29.68,North,-999,-999.0,-999.0,76,0.00,,,0.12,tws,2013-08-13 22:50:00,
2013-08-13 18:55:00,73.9,66.4,29.68,North,-999,-999.0,-999.0,77,0.00,,,0.12,tws,2013-08-13 22:55:00,
2013-08-13 19:00:00,73.6,66.5,29.68,North,-999,-999.0,-999.0,78,0.00,,,0.12,tws,2013-08-13 23:00:00,
2013-08-13 19:05:00,73.4,66.5,29.68,North,-999,-999.0,-999.0,78,0.00,,,0.12,tws,2013-08-13 23:05:00,
2013-08-13 19:10:00,73.3,66.6,29.68,North,-999,-999.0,-999.0,79,0.00,,,0.12,tws,2013-08-13 23:10:00,
2013-08-13 19:15:00,73.1,66.0,29.68,North,-999,-999.0,-999.0,78,0.00,,,0.12,tws,2013-08-13 23:15:00,
2013-08-13 19:20:00,73.0,65.9,29.68,North,-999,-999.0,-999.0,78,0.00,,,0.12,tws,2013-08-13 23:20:00,
2013-08-13 19:25:00,72.8,66.1,29.68,North,-999,-999.0,-999.0,79,0.00,,,0.12,tws,2013-08-13 23:25:00,
2013-08-13 19:30:00,72.5,66.0,29.68,North,-999,-999.0,-999.0,79,0.00,,,0.12,tws,2013-08-13 23:30:00,
2013-08-13 19:35:00,72.4,65.9,29.68,North,-999,-999.0,-999.0,79,0.00,,,0.12,tws,2013-08-13 23:35:00,
2013-08-13 19:40:00,72.4,66.1,29.68,North,-999,-999.0,-999.0,80,0.00,,,0.12,tws,2013-08-13 23:40:00,
2013-08-13 19:45:00,72.3,66.1,29.68,North,-999,-999.0,-999.0,80,0.00,,,0.12,tws,2013-08-13 23:45:00,
2013-08-13 19:50:00,72.3,66.3,29.68,North,-999,-999.0,-999.0,81,0.00,,,0.12,tws,2013-08-13 23:50:00,
2013-08-13 19:55:00,72.3,66.2,29.69,North,-999,-999.0,-999.0,81,0.00,,,0.12,tws,2013-08-13 23:55:00,
2013-08-13 20:00:00,72.3,66.9,29.69,North,-999,-999.0,-999.0,82,0.00,,,0.12,tws,2013-08-14 00:00:00,
2013-08-13 20:05:00,72.2,66.8,29.69,North,-999,-999.0,-999.0,82,0.00,,,0.12,tws,2013-08-14 00:05:00,
2013-08-13 20:10:00,72.1,66.9,29.69,North,-999,-999.0,-999.0,83,0.00,,,0.12,tws,2013-08-14 00:10:00,
2013-08-13 20:15:00,71.9,67.2,29.70,North,-999,-999.0,-999.0,84,0.00,,,0.12,tws,2013-08-14 00:15:00,
2013-08-13 20:20:00,71.7,67.4,29.70,North,-999,-999.0,-999.0,86,0.00,,,0.12,tws,2013-08-14 00:20:00,
2013-08-13 20:25:00,71.4,67.4,29.70,North,-999,-999.0,-999.0,86,0.00,,,0.12,tws,2013-08-14 00:25:00,
2013-08-13 20:30:00,71.3,67.3,29.70,North,-999,-999.0,-999.0,86,0.00,,,0.12,tws,2013-08-14 00:30:00,
2013-08-13 20:35:00,71.2,67.4,29.70,North,-999,-999.0,-999.0,87,0.00,,,0.12,tws,2013-08-14 00:35:00,
2013-08-13 20:40:00,71.2,67.5,29.70,North,-999,-999.0,-999.0,87,0.00,,,0.12,tws,2013-08-14 00:40:00,
2013-08-13 20:45:00,71.2,67.5,29.70,North,-999,-999.0,-999.0,88,0.00,,,0.12,tws,2013-08-14 00:45:00,
2013-08-13 20:50:00,71.1,67.7,29.70,North,-999,-999.0,-999.0,88,0.00,,,0.12,tws,2013-08-14 00:50:00,
2013-08-13 20:55:00,71.0,67.7,29.70,North,-999,-999.0,-999.0,89,0.00,,,0.12,tws,2013-08-14 00:55:00,
2013-08-13 21:00:00,70.8,67.8,29.70,North,-999,-999.0,-999.0,90,0.00,,,0.12,tws,2013-08-14 01:00:00,
2013-08-13 21:05:00,70.6,67.9,29.70,North,-999,-999.0,-999.0,91,0.00,,,0.12,tws,2013-08-14 01:05:00,
2013-08-13 21:10:00,70.4,67.9,29.70,North,-999,-999.0,-999.0,91,0.00,,,0.12,tws,2013-08-14 01:10:00,
2013-08-13 21:15:00,70.3,67.9,29.70,North,-999,-999.0,-999.0,92,0.00,,,0.12,tws,2013-08-14 01:15:00,
2013-08-13 21:20:00,70.1,67.9,29.70,North,-999,-999.0,-999.0,92,0.00,,,0.12,tws,2013-08-14 01:20:00,
2013-08-13 21:25:00,70.0,68.1,29.71,North,-999,-999.0,-999.0,93,0.00,,,0.12,tws,2013-08-14 01:25:00,
2013-08-13 21:30:00,70.0,68.2,29.71,North,-999,-999.0,-999.0,94,0.00,,,0.12,tws,2013-08-14 01:30:00,
2013-08-13 21:35:00,69.9,68.3,29.71,North,-999,-999.0,-999.0,94,0.00,,,0.12,tws,2013-08-14 01:35:00,
2013-08-13 21:40:00,69.9,68.4,29.71,North,-999,-999.0,-999.0,94,0.00,,,0.12,tws,2013-08-14 01:40:00,
2013-08-13 21:45:00,69.8,68.4,29.71,North,-999,-999.0,-999.0,95,0.00,,,0.12,tws,2013-08-14 01:45:00,
2013-08-13 21:50:00,69.8,68.6,29.71,North,-999,-999.0,-999.0,96,0.00,,,0.12,tws,2013-08-14 01:50:00,
2013-08-13 21:55:00,69.6,68.5,29.71,North,-999,-999.0,-999.0,96,0.00,,,0.12,tws,2013-08-14 01:55:00,
2013-08-13 22:05:00,69.5,68.7,29.72,North,-999,-999.0,-999.0,97,0.00,,,0.12,tws,2013-08-14 02:05:00,
2013-08-13 22:10:00,69.3,68.6,29.72,North,-999,-999.0,-999.0,97,0.00,,,0.12,tws,2013-08-14 02:10:00,
2013-08-13 22:15:00,69.3,68.6,29.72,North,-999,-999.0,-999.0,97,0.00,,,0.12,tws,2013-08-14 02:15:00,
2013-08-13 22:20:00,69.3,68.7,29.72,North,-999,-999.0,-999.0,97,0.00,,,0.12,tws,2013-08-14 02:20:00,
2013-08-13 22:25:00,69.3,68.8,29.72,North,-999,-999.0,-999.0,98,0.00,,,0.12,tws,2013-08-14 02:25:00,
2013-08-13 22:30:00,69.3,68.8,29.72,North,-999,-999.0,-999.0,98,0.00,,,0.12,tws,2013-08-14 02:30:00,
2013-08-13 22:35:00,69.3,68.8,29.72,North,-999,-999.0,-999.0,98,0.00,,,0.12,tws,2013-08-14 02:35:00,
2013-08-13 22:40:00,69.3,68.7,29.72,North,-999,-999.0,-999.0,98,0.00,,,0.12,tws,2013-08-14 02:40:00,
2013-08-13 22:45:00,69.2,68.8,29.72,North,-999,-999.0,-999.0,98,0.00,,,0.12,tws,2013-08-14 02:45:00,
2013-08-13 22:50:00,69.1,68.8,29.72,North,-999,-999.0,-999.0,99,0.00,,,0.12,tws,2013-08-14 02:50:00,
2013-08-13 22:55:00,68.9,68.7,29.72,North,-999,-999.0,-999.0,99,0.00,,,0.12,tws,2013-08-14 02:55:00,
2013-08-13 23:00:00,68.7,68.6,29.72,North,-999,-999.0,-999.0,99,0.00,,,0.12,tws,2013-08-14 03:00:00,
2013-08-13 23:05:00,68.6,68.5,29.72,North,-999,-999.0,-999.0,99,0.00,,,0.12,tws,2013-08-14 03:05:00,
2013-08-13 23:10:00,68.5,68.5,29.72,North,-999,-999.0,-999.0,100,0.00,,,0.12,tws,2013-08-14 03:10:00,
2013-08-13 23:15:00,68.3,68.3,29.72,North,-999,-999.0,-999.0,99,0.00,,,0.12,tws,2013-08-14 03:15:00,
2013-08-13 23:20:00,68.2,68.2,29.72,North,-999,-999.0,-999.0,100,0.00,,,0.12,tws,2013-08-14 03:20:00,
2013-08-13 23:25:00,68.1,68.1,29.72,North,-999,-999.0,-999.0,100,0.00,,,0.12,tws,2013-08-14 03:25:00,
2013-08-13 23:35:00,67.9,68.0,29.72,North,-999,-999.0,-999.0,100,0.00,,,0.12,tws,2013-08-14 03:35:00,
2013-08-13 23:40:00,67.9,68.0,29.72,North,-999,-999.0,-999.0,100,0.00,,,0.12,tws,2013-08-14 03:40:00,
2013-08-13 23:45:00,67.7,67.9,29.73,North,-999,-999.0,-999.0,100,0.00,,,0.12,tws,2013-08-14 03:45:00,
2013-08-13 23:50:00,67.6,67.8,29.72,North,-999,-999.0,-999.0,100,0.00,,,0.12,tws,2013-08-14 03:50:00,
2013-08-13 23:55:00,67.5,67.7,29.73,North,-999,-999.0,-999.0,100,0.00,,,0.12,tws,2013-08-14 03:55:00,